User: anonymous   Login
Location: Unspecified
(0.0000°N, 0.0000°E)
Time: 05:45:55
(UTC+00:00)
Language:

STARLINK-5925 - Orbit

View from above orbital plane
View from above orbital plane
View from above satellite
View from above satellite

Ground track
Ground track

The orbit is defined by the following mean orbital elements,

1 55945U          26145.27308359 +.00000000 +00000-0 -36141-4 0 00006
2 55945  69.9998  91.2845 0003031 266.3029  93.7783 14.98336035    03
Epoch (UTC): 25 May 2026 06:33:14
Eccentricity: 0.0003031
inclination: 69.9998°
perigee height: 570 km
apogee height: 574 km
right ascension of ascending node: 91.2845°
argument of perigee: 266.3029°
revolutions per day: 14.98336035
mean anomaly at epoch: 93.7783°

The dashed part of the orbit path shows where the satellite is in the earth's shadow,  

DLR